Starlink 5739

operational
NORAD ID: 55571 Int'l Des: 2023-020 Owner: SPXS Country: US Constellation: starlink
LEOCIRCULAR

About Starlink 5739

Description loading...

Live Position

Loading 3D Globe...

Upcoming Passes

Altitude History

Altitude vs Time

uPlot chart will show altitude changes over time

Two-Line Element Set

1 55571U 23020C 25302.51609733 -.00000292 00000-0 -65435-5 0 9999
2 55571 43.0047 357.7227 0001170 272.8643 87.2065 15.02534418149181
Epoch: Oct 29, 2025 • Age: 15 hours

Current Status

Altitude 564.0 km
Velocity 7.58 km/s
Sub-Earth Point -22.55°S, 106.41°E
Launch Date Feb 12, 2023
Age 2.7 years
Type internet

Technical Details

Classification Payload
Mass 305.00 kg
Dry Mass 290.00 kg
Total Mass 305.00 kg
Length 0.20 m
Diameter 2.80 m
Span 9.00 m
Shape Box + pan
Manufacturer SPXS
Bus Type Starlink
Phase Status In Orbit
Owner/State SPXS/US

Large Constellations

Loading constellations...